SCP
0 0 0 0 0 0 0 0 0 0 0 0 0 -0 -0 0 0 0 0 0 -0 0 0 -0 -0 -1 -1 1 1 1 2 2 1 2 1 1 0 0 0 0 0 0 0 0
0 0 0 0 0 0 0 0 0 0 0 0 0 -0 -0 0 0 0 0 -0 -0 -0 0 0 -0 -0 0 1 2 2 2 2 1 1 1 1 0 0 0 0 0 0 0 0
0 0 0 0 0 0 0 -0 -0 -0 0 0 0 -0 0 0 0 0 -0 -0 -0 -0 0 0 0 0 1 1 2 1 1 1 1 0 2 3 3 3 2 1 0 0 0 0
0 0 0 0 0 0 -0 -0 -0 -0 0 0 0 -0 -0 0 0 0 0 0 0 -0 0 0 -0 0 1 1 2 2 1 1 0 0 2 2 1 2 2 1 1 1 0 0
0 0 0 0 0 0 0 -0 0 0 0 0 0 0 0 0 0 0 0 0 0 0 0 -0 -0 0 1 1 2 2 2 1 0 1 1 2 2 2 2 1 1 0 0 0
0 0 0 0 0 0 0 0 0 0 0 0 0 0 0 0 0 0 0 0 0 0 0 0 -0 0 0 0 2 2 2 1 1 2 0 2 2 2 2 1 1 0 0 0
0 0 0 0 0 0 0 0 0 0 0 0 0 0 0 0 0 0 0 0 0 0 0 0 -0 0 0 1 2 2 2 1 1 2 2 4 2 3 2 1 1 0 0 0
0 0 0 0 0 -0 0 0 0 0 0 0 0 0 0 0 0 0 0 0 0 0 0 0 0 0 0 2 2 4 1 0 1 1 1 2 2 2 2 2 0 0 0 0
0 0 -0 0 0 0 0 0 0 0 0 0 0 0 0 0 0 0 0 0 0 0 0 0 0 0 0 2 3 4 2 1 1 1 0 2 3 1 0 0 0 0 0 0
0 0 0 0 0 0 0 0 0 0 0 0 0 0 0 0 0 0 0 0 0 0 0 0 0 0 0 3 4 4 4 1 1 3 1 0 2 1 0 0 0 0 0 0
0 0 0 0 0 0 -0 0 0 0 0 0 0 0 0 0 0 0 0 0 0 0 0 0 0 0 0 2 5 4 5 4 3 4 2 0 0 0 0 0 0 0 0 0
0 0 0 0 0 -0 -0 -0 0 0 0 0 0 0 0 0 0 0 0 0 0 0 -0 0 0 0 0 1 4 5 4 4 4 2 1 0 0 0 0 0 0 0 0 0
0 0 0 0 0 0 0 0 0 0 0 0 0 0 0 0 0 -0 -0 -0 0 0 -0 0 0 0 0 1 4 5 5 3 3 2 1 0 0 0 0 0 0 0 0 0
0 0 0 0 0 0 0 0 0 0 0 0 0 0 0 0 0 0 0 -0 0 0 0 0 0 1 0 4 4 4 3 3 2 1 0 0 0 0 0 0 0 -0 -0 0
0 0 0 0 0 0 0 0 0 0 0 0 0 0 0 0 0 0 -0 0 0 0 0 0 0 0 3 4 2 0 0 2 2 0 0 0 0 0 0 0 0 0 0 0
0 0 0 0 0 0 0 0 0 0 0 0 0 0 0 0 0 0 -0 -0 -0 0 0 0 0 1 2 2 1 0 0 1 1 0 0 0 0 0 0 0 0 0 0 0
0 0 0 -0 0 0 0 0 0 0 0 -0 0 0 0 0 0 0 0 -0 -0 0 0 0 1 1 1 1 0 0 0 0 0 0 0 0 0 0 0 0 0 0 0 0
0 0 0 0 0 0 0 0 0 0 -0 0 0 0 -0 -0 -0 -0 0 -0 -0 0 0 1 1 0 1 0 0 0 0 0 0 0 0 0 0 0 0 0 0 0 0 0
0 0 0 0 0 0 0 0 0 -0 -0 0 0 -0 0 -0 0 -0 0 -0 -0 0 0 0 1 1 0 0 0 0 0 0 0 0 0 0 0 0 0 0 0 0 0 0
0 0 0 0 0 0 0 -0 -0 0 0 0 0 -0 -0 -0 -0 0 0 0 0 0 0 0 0 0 0 0 0 0 0 0 0 0 0 0 0 0 0 0 0 0 0 0
0 0 0 0 0 0 0 -0 0 0 0 -0 -0 -0 -0 -0 0 0 0 0 0 0 0 0 0 0 0 0 0 0 0 0 0 0 0 0 0 0 0 0 0 0 0 0
0 0 0 0 0 0 -0 0 0 0 0 -0 -0 -0 -0 0 0 0 0 0 0 0 0 0 0 0 0 0 0 0 0 0 0 0 0 0 0 0 0 0 0 0 0 0
0 0 0 0 0 0 0 0 0 0 0 -0 -0 -0 0 0 0 0 0 0 0 0 0 0 0 0 0 0 -0 0 0 0 0 0 0 0 0 0 0 0 0 0 0 0
0 0 0 0 0 0 -0 0 0 0 0 0 0 0 0 0 0 0 0 0 0 0 0 0 0 0 0 0 0 0 0 0 0 0 0 0 0 0 0 0 0 0 0 0
0 0 0 0 0 0 0 0 -0 -0 0 0 0 0 0 0 0 0 0 0 0 0 0 0 0 0 0 0 0 0 0 0 0 0 0 0 0 0 0 0 0 0 0 0
0 0 0 0 -0 0 -0 -0 -0 0 -0 0 0 0 0 0 0 0 0 0 0 0 0 0 0 0 0 0 0 0 0 0 0 0 0 0 0 0 0 0 0 -0 -0 -0
Wind_Speed_500mb
25 3 13 26 26 34 31 37 42 40 35 20 36 42 35 28 31 29 44 62 49 50 58 49 39 38 21 35 60 72 81 79 84 71 51 45 52 47 47 42 46 60 51 47
8 15 28 28 29 32 40 41 46 48 41 35 33 48 39 12 20 39 45 62 68 58 56 48 43 36 30 33 53 88 82 80 87 81 84 65 56 51 41 42 43 45 44 48
13 22 23 26 24 25 25 24 28 38 18 17 27 59 34 32 24 45 60 63 68 70 74 62 61 41 34 48 58 68 89 85 88 80 88 78 64 56 41 53 50 46 52 53
21 17 23 27 31 26 38 21 34 40 30 25 14 42 39 17 37 34 48 59 68 71 72 69 67 56 43 50 62 65 92 92 94 96 92 94 92 70 67 72 61 63 56 50
14 31 30 21 17 8 14 29 24 15 17 16 21 17 53 22 32 31 34 54 65 68 68 70 63 51 47 42 66 76 91 93 92 111 88 88 80 78 76 78 69 68 59 55
24 47 9 12 6 7 10 11 16 9 8 21 16 26 55 25 27 34 31 49 64 61 69 77 70 60 62 43 65 84 99 98 104 104 99 91 85 88 85 78 78 75 66 58
25 13 10 8 7 5 4 6 9 6 1 19 8 25 39 15 20 26 28 51 70 73 69 67 75 79 65 50 60 90 101 100 98 102 107 99 96 90 91 87 84 80 68 57
7 19 11 5 20 17 19 15 9 11 6 14 2 14 12 19 28 49 52 55 61 57 67 77 80 74 84 64 56 97 110 109 106 105 121 107 94 86 81 90 86 75 66 55
8 16 33 39 44 9 10 7 13 12 24 18 9 13 20 30 25 21 35 36 42 37 58 72 69 70 77 67 63 80 103 109 118 119 116 108 94 89 76 82 83 78 67 55
11 29 23 22 15 21 20 10 3 5 8 10 10 14 16 10 9 13 15 11 24 40 32 32 58 51 55 60 62 77 105 112 112 114 99 87 108 95 91 95 83 71 61 54
11 14 21 17 13 12 4 4 6 7 7 7 9 11 14 16 14 16 16 32 33 41 42 43 30 44 46 65 65 82 104 102 98 110 99 97 103 129 123 101 79 64 58 51
4 8 15 21 44 23 19 20 16 9 9 10 7 28 11 18 11 13 16 31 28 36 36 43 35 32 40 58 71 74 95 103 99 93 98 90 120 124 97 76 80 72 62 62
12 8 11 13 10 9 1 3 13 17 9 20 12 17 6 10 15 24 22 32 47 38 41 35 40 36 32 76 81 81 94 94 94 98 100 99 90 91 95 94 78 72 69 70
18 4 12 13 25 19 37 38 28 22 12 28 38 58 30 27 15 18 36 51 57 54 39 36 28 32 32 69 67 75 87 92 89 86 107 109 104 94 90 84 82 74 76 71
7 9 13 25 41 41 43 47 14 13 14 17 34 39 27 25 18 16 38 44 48 58 47 39 27 19 47 72 71 78 82 83 95 98 111 113 103 93 93 89 89 82 76 71
6 10 16 29 41 33 36 16 5 9 18 26 36 47 22 19 31 34 43 40 44 57 50 27 20 27 58 75 73 66 65 79 99 112 116 115 109 108 98 93 88 83 77 71
4 9 7 16 25 41 14 15 4 21 22 27 34 36 17 32 41 44 65 50 41 60 42 25 27 47 73 81 72 57 44 43 121 134 136 127 117 106 98 90 83 82 75 67
7 6 7 16 22 8 6 8 18 27 42 29 36 15 23 39 61 80 84 70 58 74 42 32 35 64 87 94 77 62 62 71 88 120 135 121 108 102 96 88 83 78 69 65
11 4 9 8 14 30 9 7 16 31 59 7 11 38 50 68 63 77 90 77 71 72 36 44 50 75 103 99 92 82 76 38 97 107 127 119 110 102 97 94 84 71 71 69
9 16 5 8 10 10 6 21 45 28 14 12 45 51 51 48 23 28 29 57 65 55 29 63 77 82 95 96 102 103 92 80 55 65 76 90 96 98 95 87 77 78 72 70
13 8 7 12 11 12 10 35 40 10 15 56 75 66 59 33 34 78 55 53 54 46 71 63 91 104 102 113 119 125 118 122 85 83 91 91 91 91 82 79 81 77 73 70
8 11 6 8 8 12 31 31 9 25 70 75 84 81 78 76 68 24 50 50 59 82 61 88 114 99 101 120 121 117 110 108 107 102 97 93 88 84 83 80 76 74 72 69
7 4 8 6 11 42 43 42 51 61 66 76 80 93 81 17 43 60 62 56 65 96 93 117 116 106 104 110 111 119 113 106 103 101 98 92 84 79 75 79 79 75 65 61
8 5 6 9 3 16 50 49 63 79 76 85 82 81 21 46 48 68 74 50 65 97 108 117 114 104 97 102 106 99 102 98 99 100 97 93 90 86 82 76 67 62 59 60
8 4 6 12 11 38 8 60 71 83 81 87 89 69 55 78 65 70 69 67 86 105 103 109 106 105 99 97 101 102 96 100 105 104 101 93 89 85 82 73 63 61 55 45
7 7 3 8 24 17 33 62 60 65 68 77 75 65 82 78 80 95 73 74 99 111 105 107 101 101 97 101 100 97 98 99 103 105 97 93 91 86 79 77 73 54 50 46
Wind_Direction_500mb
273 158 233 244 223 241 255 262 269 268 282 280 289 284 283 275 274 262 268 266 260 277 283 283 296 284 209 208 202 196 183 189 187 177 175 192 199 202 197 199 206 204 208 211
346 257 247 247 253 246 249 258 269 271 270 264 272 278 286 259 261 270 271 272 275 277 269 272 281 288 226 209 210 205 206 199 189 195 191 205 198 200 199 201 202 200 211 208
230 254 276 272 282 286 277 281 289 285 289 269 289 277 271 273 257 261 265 268 275 273 270 270 266 278 240 211 208 215 205 197 195 183 189 192 192 191 196 213 209 205 208 210
271 280 248 269 269 278 282 292 291 290 292 287 187 281 263 267 267 249 251 250 257 261 261 261 267 260 264 222 211 209 212 204 208 203 200 193 192 195 200 213 210 206 203 205
286 312 288 264 262 355 300 310 299 304 298 294 234 267 276 223 256 250 251 254 260 257 260 263 259 250 260 230 213 211 215 207 201 194 201 197 194 195 199 208 204 201 200 206
290 296 244 275 67 92 23 357 311 241 154 259 203 218 267 258 258 251 241 240 250 257 261 259 259 257 256 241 217 215 212 208 210 207 203 200 196 196 198 202 199 195 195 198
327 319 324 68 348 302 35 7 319 296 229 255 188 241 262 270 291 263 246 239 248 253 257 260 257 253 250 230 219 214 210 209 208 213 210 203 204 202 201 196 194 189 189 191
322 326 358 323 303 281 263 184 183 271 238 294 68 246 252 222 246 266 251 244 252 250 254 253 255 248 243 233 221 215 208 210 205 207 205 204 202 204 201 198 191 194 193 196
296 270 302 293 283 251 276 162 226 251 261 256 235 274 284 256 260 282 272 242 245 266 249 249 245 245 244 224 214 212 216 210 207 208 212 211 200 200 199 198 195 195 192 189
235 291 286 304 328 264 201 190 337 187 255 248 255 243 235 283 278 305 315 280 256 269 301 241 230 230 235 218 211 208 213 218 213 211 196 195 197 193 196 209 201 189 188 191
188 213 279 301 220 224 324 201 179 210 230 263 288 245 217 214 225 260 270 284 298 301 299 327 259 242 224 209 205 203 210 213 208 204 207 200 189 184 195 197 194 187 190 182
270 260 272 259 273 278 256 262 238 238 223 221 261 264 201 193 246 299 293 308 336 324 327 319 289 299 218 198 205 203 205 207 205 199 189 169 182 193 183 194 193 191 179 170
187 229 293 318 351 18 105 155 231 239 237 239 265 264 326 345 331 337 340 344 332 356 329 306 274 293 198 186 198 197 205 205 207 199 193 187 173 188 179 177 176 172 163 164
151 247 229 255 279 287 286 282 276 266 248 268 249 275 268 285 317 325 321 320 320 318 332 308 280 285 224 190 191 195 199 201 201 191 192 177 179 183 175 169 165 160 159 160
154 241 234 247 266 276 271 272 267 277 266 266 284 272 298 291 288 299 304 306 312 312 325 316 290 268 202 185 188 196 194 197 196 175 174 172 173 171 166 160 155 157 158 157
186 273 258 276 278 271 271 223 245 277 273 266 264 270 298 322 312 307 304 305 302 301 319 280 271 186 180 174 162 166 181 185 188 167 166 170 168 160 156 154 154 155 159 158
247 298 295 287 299 305 277 149 336 285 292 277 270 273 321 318 307 295 291 285 281 278 313 247 225 164 153 149 144 138 162 188 173 160 156 157 154 152 151 151 152 160 158 156
204 273 266 291 316 277 97 125 308 289 296 282 267 275 298 290 285 283 273 264 258 258 280 197 178 154 139 142 143 139 123 130 121 126 141 146 149 151 151 151 159 158 157 160
199 263 282 298 300 271 144 25 320 324 305 311 337 315 308 299 291 276 259 247 238 239 249 185 156 147 146 153 151 141 142 141 121 122 130 143 151 148 152 156 158 154 156 151
309 300 232 294 290 276 79 325 332 314 267 324 329 299 294 301 291 281 260 211 212 218 211 166 139 141 142 146 152 147 143 142 138 134 137 144 150 152 157 154 150 151 149 144
312 306 244 273 262 272 358 342 324 330 291 311 304 294 294 289 268 278 287 193 188 185 164 153 136 134 134 138 145 135 134 141 160 159 150 151 152 156 152 149 151 148 144 144
307 313 316 298 283 298 3 344 351 297 298 298 301 300 300 297 302 154 154 154 163 159 162 139 133 130 136 141 139 141 142 147 156 152 152 152 154 151 150 146 146 147 145 142
293 219 293 225 264 296 325 319 314 314 307 309 310 313 310 274 121 125 127 135 149 145 125 129 134 131 133 142 144 132 139 149 149 149 152 152 149 146 146 147 146 144 143 137
254 164 257 316 242 314 321 337 329 329 325 326 333 345 80 96 102 114 121 105 113 120 120 126 128 126 125 133 141 146 145 149 147 147 148 148 147 146 145 142 140 140 138 134
237 357 301 260 316 321 318 335 334 336 351 352 2 9 68 95 97 110 103 121 106 107 112 120 121 125 126 139 133 141 145 152 152 149 147 148 148 143 139 138 129 125 117 121
177 218 321 290 322 299 298 331 337 347 350 360 360 19 73 91 97 107 101 102 107 110 120 123 126 122 124 135 137 145 152 156 151 148 148 147 146 146 144 135 124 117 110 114
Wind_Speed_850mb
25 3 13 26 26 34 31 37 42 40 35 20 36 42 35 28 31 29 44 62 49 50 58 49 39 38 21 35 60 72 81 79 84 71 51 45 52 47 47 42 46 60 51 47
8 15 28 28 29 32 40 41 46 48 41 35 33 48 39 12 20 39 45 62 68 58 56 48 43 36 30 33 53 88 82 80 87 81 84 65 56 51 41 42 43 45 44 48
13 22 23 26 24 25 25 24 28 38 18 17 27 59 34 32 24 45 60 63 68 70 74 62 61 41 34 48 58 68 89 85 88 80 88 78 64 56 41 53 50 46 52 53
21 17 23 27 31 26 38 21 34 40 30 25 14 42 39 17 37 34 48 59 68 71 72 69 67 56 43 50 62 65 92 92 94 96 92 94 92 70 67 72 61 63 56 50
14 31 30 21 17 8 14 29 24 15 17 16 21 17 53 22 32 31 34 54 65 68 68 70 63 51 47 42 66 76 91 93 92 111 88 88 80 78 76 78 69 68 59 55
24 47 9 12 6 7 10 11 16 9 8 21 16 26 55 25 27 34 31 49 64 61 69 77 70 60 62 43 65 84 99 98 104 104 99 91 85 88 85 78 78 75 66 58
25 13 10 8 7 5 4 6 9 6 1 19 8 25 39 15 20 26 28 51 70 73 69 67 75 79 65 50 60 90 101 100 98 102 107 99 96 90 91 87 84 80 68 57
7 19 11 5 20 17 19 15 9 11 6 14 2 14 12 19 28 49 52 55 61 57 67 77 80 74 84 64 56 97 110 109 106 105 121 107 94 86 81 90 86 75 66 55
8 16 33 39 44 9 10 7 13 12 24 18 9 13 20 30 25 21 35 36 42 37 58 72 69 70 77 67 63 80 103 109 118 119 116 108 94 89 76 82 83 78 67 55
11 29 23 22 15 21 20 10 3 5 8 10 10 14 16 10 9 13 15 11 24 40 32 32 58 51 55 60 62 77 105 112 112 114 99 87 108 95 91 95 83 71 61 54
11 14 21 17 13 12 4 4 6 7 7 7 9 11 14 16 14 16 16 32 33 41 42 43 30 44 46 65 65 82 104 102 98 110 99 97 103 129 123 101 79 64 58 51
4 8 15 21 44 23 19 20 16 9 9 10 7 28 11 18 11 13 16 31 28 36 36 43 35 32 40 58 71 74 95 103 99 93 98 90 120 124 97 76 80 72 62 62
12 8 11 13 10 9 1 3 13 17 9 20 12 17 6 10 15 24 22 32 47 38 41 35 40 36 32 76 81 81 94 94 94 98 100 99 90 91 95 94 78 72 69 70
18 4 12 13 25 19 37 38 28 22 12 28 38 58 30 27 15 18 36 51 57 54 39 36 28 32 32 69 67 75 87 92 89 86 107 109 104 94 90 84 82 74 76 71
7 9 13 25 41 41 43 47 14 13 14 17 34 39 27 25 18 16 38 44 48 58 47 39 27 19 47 72 71 78 82 83 95 98 111 113 103 93 93 89 89 82 76 71
6 10 16 29 41 33 36 16 5 9 18 26 36 47 22 19 31 34 43 40 44 57 50 27 20 27 58 75 73 66 65 79 99 112 116 115 109 108 98 93 88 83 77 71
4 9 7 16 25 41 14 15 4 21 22 27 34 36 17 32 41 44 65 50 41 60 42 25 27 47 73 81 72 57 44 43 121 134 136 127 117 106 98 90 83 82 75 67
7 6 7 16 22 8 6 8 18 27 42 29 36 15 23 39 61 80 84 70 58 74 42 32 35 64 87 94 77 62 62 71 88 120 135 121 108 102 96 88 83 78 69 65
11 4 9 8 14 30 9 7 16 31 59 7 11 38 50 68 63 77 90 77 71 72 36 44 50 75 103 99 92 82 76 38 97 107 127 119 110 102 97 94 84 71 71 69
9 16 5 8 10 10 6 21 45 28 14 12 45 51 51 48 23 28 29 57 65 55 29 63 77 82 95 96 102 103 92 80 55 65 76 90 96 98 95 87 77 78 72 70
13 8 7 12 11 12 10 35 40 10 15 56 75 66 59 33 34 78 55 53 54 46 71 63 91 104 102 113 119 125 118 122 85 83 91 91 91 91 82 79 81 77 73 70
8 11 6 8 8 12 31 31 9 25 70 75 84 81 78 76 68 24 50 50 59 82 61 88 114 99 101 120 121 117 110 108 107 102 97 93 88 84 83 80 76 74 72 69
7 4 8 6 11 42 43 42 51 61 66 76 80 93 81 17 43 60 62 56 65 96 93 117 116 106 104 110 111 119 113 106 103 101 98 92 84 79 75 79 79 75 65 61
8 5 6 9 3 16 50 49 63 79 76 85 82 81 21 46 48 68 74 50 65 97 108 117 114 104 97 102 106 99 102 98 99 100 97 93 90 86 82 76 67 62 59 60
8 4 6 12 11 38 8 60 71 83 81 87 89 69 55 78 65 70 69 67 86 105 103 109 106 105 99 97 101 102 96 100 105 104 101 93 89 85 82 73 63 61 55 45
7 7 3 8 24 17 33 62 60 65 68 77 75 65 82 78 80 95 73 74 99 111 105 107 101 101 97 101 100 97 98 99 103 105 97 93 91 86 79 77 73 54 50 46
Wind_Direction_850mb
273 158 233 244 223 241 255 262 269 268 282 280 289 284 283 275 274 262 268 266 260 277 283 283 296 284 209 208 202 196 183 189 187 177 175 192 199 202 197 199 206 204 208 211
346 257 247 247 253 246 249 258 269 271 270 264 272 278 286 259 261 270 271 272 275 277 269 272 281 288 226 209 210 205 206 199 189 195 191 205 198 200 199 201 202 200 211 208
230 254 276 272 282 286 277 281 289 285 289 269 289 277 271 273 257 261 265 268 275 273 270 270 266 278 240 211 208 215 205 197 195 183 189 192 192 191 196 213 209 205 208 210
271 280 248 269 269 278 282 292 291 290 292 287 187 281 263 267 267 249 251 250 257 261 261 261 267 260 264 222 211 209 212 204 208 203 200 193 192 195 200 213 210 206 203 205
286 312 288 264 262 355 300 310 299 304 298 294 234 267 276 223 256 250 251 254 260 257 260 263 259 250 260 230 213 211 215 207 201 194 201 197 194 195 199 208 204 201 200 206
290 296 244 275 67 92 23 357 311 241 154 259 203 218 267 258 258 251 241 240 250 257 261 259 259 257 256 241 217 215 212 208 210 207 203 200 196 196 198 202 199 195 195 198
327 319 324 68 348 302 35 7 319 296 229 255 188 241 262 270 291 263 246 239 248 253 257 260 257 253 250 230 219 214 210 209 208 213 210 203 204 202 201 196 194 189 189 191
322 326 358 323 303 281 263 184 183 271 238 294 68 246 252 222 246 266 251 244 252 250 254 253 255 248 243 233 221 215 208 210 205 207 205 204 202 204 201 198 191 194 193 196
296 270 302 293 283 251 276 162 226 251 261 256 235 274 284 256 260 282 272 242 245 266 249 249 245 245 244 224 214 212 216 210 207 208 212 211 200 200 199 198 195 195 192 189
235 291 286 304 328 264 201 190 337 187 255 248 255 243 235 283 278 305 315 280 256 269 301 241 230 230 235 218 211 208 213 218 213 211 196 195 197 193 196 209 201 189 188 191
188 213 279 301 220 224 324 201 179 210 230 263 288 245 217 214 225 260 270 284 298 301 299 327 259 242 224 209 205 203 210 213 208 204 207 200 189 184 195 197 194 187 190 182
270 260 272 259 273 278 256 262 238 238 223 221 261 264 201 193 246 299 293 308 336 324 327 319 289 299 218 198 205 203 205 207 205 199 189 169 182 193 183 194 193 191 179 170
187 229 293 318 351 18 105 155 231 239 237 239 265 264 326 345 331 337 340 344 332 356 329 306 274 293 198 186 198 197 205 205 207 199 193 187 173 188 179 177 176 172 163 164
151 247 229 255 279 287 286 282 276 266 248 268 249 275 268 285 317 325 321 320 320 318 332 308 280 285 224 190 191 195 199 201 201 191 192 177 179 183 175 169 165 160 159 160
154 241 234 247 266 276 271 272 267 277 266 266 284 272 298 291 288 299 304 306 312 312 325 316 290 268 202 185 188 196 194 197 196 175 174 172 173 171 166 160 155 157 158 157
186 273 258 276 278 271 271 223 245 277 273 266 264 270 298 322 312 307 304 305 302 301 319 280 271 186 180 174 162 166 181 185 188 167 166 170 168 160 156 154 154 155 159 158
247 298 295 287 299 305 277 149 336 285 292 277 270 273 321 318 307 295 291 285 281 278 313 247 225 164 153 149 144 138 162 188 173 160 156 157 154 152 151 151 152 160 158 156
204 273 266 291 316 277 97 125 308 289 296 282 267 275 298 290 285 283 273 264 258 258 280 197 178 154 139 142 143 139 123 130 121 126 141 146 149 151 151 151 159 158 157 160
199 263 282 298 300 271 144 25 320 324 305 311 337 315 308 299 291 276 259 247 238 239 249 185 156 147 146 153 151 141 142 141 121 122 130 143 151 148 152 156 158 154 156 151
309 300 232 294 290 276 79 325 332 314 267 324 329 299 294 301 291 281 260 211 212 218 211 166 139 141 142 146 152 147 143 142 138 134 137 144 150 152 157 154 150 151 149 144
312 306 244 273 262 272 358 342 324 330 291 311 304 294 294 289 268 278 287 193 188 185 164 153 136 134 134 138 145 135 134 141 160 159 150 151 152 156 152 149 151 148 144 144
307 313 316 298 283 298 3 344 351 297 298 298 301 300 300 297 302 154 154 154 163 159 162 139 133 130 136 141 139 141 142 147 156 152 152 152 154 151 150 146 146 147 145 142
293 219 293 225 264 296 325 319 314 314 307 309 310 313 310 274 121 125 127 135 149 145 125 129 134 131 133 142 144 132 139 149 149 149 152 152 149 146 146 147 146 144 143 137
254 164 257 316 242 314 321 337 329 329 325 326 333 345 80 96 102 114 121 105 113 120 120 126 128 126 125 133 141 146 145 149 147 147 148 148 147 146 145 142 140 140 138 134
237 357 301 260 316 321 318 335 334 336 351 352 2 9 68 95 97 110 103 121 106 107 112 120 121 125 126 139 133 141 145 152 152 149 147 148 148 143 139 138 129 125 117 121
177 218 321 290 322 299 298 331 337 347 350 360 360 19 73 91 97 107 101 102 107 110 120 123 126 122 124 135 137 145 152 156 151 148 148 147 146 146 144 135 124 117 110 114